DW6723 Weather Reports


Display with metric or nautical units.
time (UTC)temp
F
wind
direction
speed
MPH
gust
MPH
rain 1hr
in
rain 24hr
in
rain mn
in
humidity
%
barometer
mb
20260507223012 61 329 7.0 18.0 0.00 0.13 0.00 32 1005.0
20260507221552 61 323 10.0 18.0 0.00 0.15 0.00 35 1004.9
20260507220052 62 325 5.0 15.0 0.00 0.15 0.00 31 1004.8
20260507214533 62 306 7.0 21.0 0.00 0.15 0.00 32 1004.8
20260507213031 61 335 12.0 19.0 0.00 0.15 0.00 33 1004.5
20260507211524 62 283 7.0 15.0 0.00 0.17 0.00 33 1004.6
20260507210013 61 281 8.0 17.0 0.00 0.17 0.00 33 1004.7
20260507204553 61 301 9.0 17.0 0.00 0.17 0.00 33 1004.6
20260507203057 61 314 7.0 19.0 0.00 0.17 0.00 31 1004.6
20260507201533 62 323 7.0 18.0 0.00 0.17 0.00 31 1004.5
20260507200031 62 264 6.0 18.0 0.00 0.17 0.00 32 1004.7
20260507194512 62 324 8.0 18.0 0.00 0.17 0.00 33 1004.8
20260507193009 62 338 8.0 23.0 0.00 0.17 0.00 34 1004.8
20260507191557 62 325 7.0 19.0 0.00 0.17 0.17 33 1005.0
20260507190055 61 339 8.0 23.0 0.00 0.17 0.17 39 1005.1
20260507184554 61 355 4.0 20.0 0.00 0.17 0.17 33 1005.2
20260507183053 61 314 11.0 17.0 0.00 0.17 0.17 37 1005.2
20260507181553 61 247 3.0 14.0 0.00 0.17 0.17 37 1005.3
20260507180059 60 355 10.0 17.0 0.00 0.17 0.17 37 1005.4
20260507174606 60 355 7.0 15.0 0.00 0.17 0.17 35 1005.2
20260507173053 61 329 6.0 16.0 0.00 0.17 0.17 36 1005.4
20260507171548 61 274 4.0 18.0 0.00 0.17 0.17 40 1005.6
20260507170037 61 256 6.0 14.0 0.00 0.17 0.17 45 1005.7
20260507164544 60 306 9.0 18.0 0.00 0.17 0.17 48 1005.9
20260507163043 59 308 6.0 19.0 0.00 0.17 0.17 52 1006.1
20260507161539 60 344 6.0 12.0 0.00 0.17 0.17 50 1006.2
20260507160043 59 320 8.0 15.0 0.00 0.17 0.17 53 1006.3
20260507154532 60 318 6.0 15.0 0.00 0.17 0.17 51 1006.4
20260507153032 59 234 5.0 12.0 0.00 0.17 0.17 49 1006.4
20260507151512 58 304 9.0 15.0 0.00 0.17 0.17 51 1006.7
20260507150012 58 321 8.0 18.0 0.00 0.17 0.17 49 1006.8
20260507144611 58 14 5.0 14.0 0.00 0.17 0.17 52 1006.9
20260507143055 57 331 5.0 16.0 0.00 0.17 0.17 53 1006.9
20260507141552 57 309 6.0 13.0 0.00 0.17 0.17 55 1006.9
20260507140033 56 265 4.0 7.0 0.00 0.17 0.17 57 1006.8
20260507134532 55 355 2.0 9.0 0.00 0.17 0.17 61 1007.0
20260507133014 54 342 5.0 10.0 0.00 0.17 0.17 63 1007.3
20260507131513 54 290 7.0 11.0 0.00 0.17 0.17 64 1007.5
20260507130106 53 327 9.0 13.0 0.00 0.17 0.17 65 1007.5
20260507124624 53 349 6.0 9.0 0.00 0.17 0.17 67 1007.6
20260507123033 52 305 5.0 14.0 0.00 0.17 0.17 70 1007.5
20260507121536 51 335 4.0 11.0 0.00 0.17 0.17 72 1007.8
20260507120021 50 350 5.0 11.0 0.00 0.17 0.17 75 1007.7
20260507114520 50 326 5.0 11.0 0.00 0.17 0.17 75 1007.7
20260507113023 49 344 7.0 10.0 0.00 0.17 0.17 77 1007.3
20260507111519 49 326 3.0 8.0 0.00 0.17 0.17 79 1007.4
20260507110028 49 288 3.0 8.0 0.00 0.17 0.17 79 1007.5
20260507104515 49 321 4.0 10.0 0.00 0.17 0.17 81 1007.0
20260507103014 49 25 6.0 12.0 0.00 0.17 0.17 81 1006.9
20260507101514 49 321 7.0 11.0 0.00 0.17 0.17 81 1007.0
20260507100057 49 340 7.0 11.0 0.00 0.17 0.17 81 1006.9
20260507094554 49 321 6.0 12.0 0.00 0.17 0.17 81 1006.8
20260507093039 49 285 2.0 11.0 0.00 0.17 0.17 82 1006.9
20260507091541 49 303 2.0 6.0 0.00 0.17 0.17 82 1007.0
20260507090014 49 303 2.0 11.0 0.00 0.17 0.17 82 1006.8
20260507084518 49 321 7.0 11.0 0.00 0.17 0.17 82 1006.6
20260507083059 50 331 5.0 11.0 0.00 0.17 0.17 82 1006.2
20260507081557 50 311 4.0 12.0 0.00 0.17 0.17 83 1006.3
20260507080100 51 300 7.0 13.0 0.00 0.17 0.17 80 1006.5
20260507074606 51 307 7.0 16.0 0.00 0.17 0.17 79 1006.5
20260507073050 51 306 7.0 13.0 0.00 0.17 0.17 80 1006.2
20260507071552 52 318 9.0 15.0 0.00 0.17 0.17 81 1006.1
20260507070103 52 313 5.0 9.0 0.00 0.17 0.17 84 1005.9
20260507064544 52 302 2.0 7.0 0.00 0.17 0.17 85 1005.9
20260507063036 52 338 5.0 13.0 0.00 0.17 0.17 84 1005.6
20260507061527 53 275 5.0 11.0 0.00 0.17 0.17 84 1005.8
20260507060005 53 282 3.0 9.0 0.00 0.17 0.17 85 1005.8
20260507054503 53 309 3.0 9.0 0.00 0.17 0.17 87 1006.0
20260507053045 53 325 4.0 11.0 0.00 0.17 0.17 86 1005.9
20260507051544 54 313 5.0 12.0 0.00 0.17 0.17 85 1006.0
20260507050029 54 299 4.0 9.0 0.00 0.17 0.17 87 1006.1
20260507044521 54 298 6.0 11.0 0.00 0.17 0.17 87 1005.7
20260507043002 55 338 7.0 15.0 0.00 0.17 0.17 86 1005.7
20260507041558 57 334 7.0 14.0 0.00 0.17 0.17 86 1005.9
20260507040036 59 348 8.0 15.0 0.00 0.17 0.17 90 1005.7
20260507034538 59 261 2.0 14.0 0.00 0.17 0.17 92 1005.2
20260507033017 60 288 3.0 11.0 0.00 0.17 0.17 93 1004.9
20260507031518 60 261 4.0 10.0 0.00 0.17 0.17 92 1004.7
20260507030058 60 241 3.0 10.0 0.00 0.17 0.17 92 1004.6
20260507024557 60 200 2.0 8.0 0.00 0.17 0.17 92 1004.7
20260507023037 59 236 5.0 9.0 0.00 0.17 0.17 92 1004.8
20260507021538 59 207 4.0 10.0 0.00 0.17 0.17 92 1004.6
20260507020029 59 258 3.0 10.0 0.00 0.17 0.17 92 1004.8
20260507014519 59 224 4.0 12.0 0.01 0.17 0.17 92 1004.9
20260507013119 59 225 5.0 11.0 0.01 0.17 0.17 92 1005.0
20260507011609 59 192 3.0 8.0 0.01 0.17 0.17 92 1005.1
20260507010052 59 208 4.0 10.0 0.01 0.17 0.17 92 1005.1
20260507004539 59 251 4.0 10.0 0.01 0.16 0.16 92 1005.1
20260507003028 59 218 4.0 12.0 0.05 0.16 0.16 92 1005.0
20260507001530 59 219 3.0 11.0 0.08 0.16 0.16 93 1004.9
20260507000024 60 189 3.0 8.0 0.10 0.16 0.16 92 1004.8
20260506234530 60 182 4.0 9.0 0.10 0.15 0.15 92 1004.7
20260506233022 60 194 4.0 9.0 0.07 0.11 0.11 92 1004.8
20260506231521 60 217 4.0 9.0 0.04 0.08 0.08 91 1005.1
20260506230021 60 188 3.0 12.0 0.02 0.06 0.06 91 1005.1
20260506224515 61 184 7.0 13.0 0.02 0.05 0.05 90 1005.2